User: anonymous   Login
Location: Caltech
(34.1382°N, 118.1253°W)
Time: 07:19:09
(UTC-08:00)
Language:

Tiros 1 despin weight - Orbit

View from above orbital plane
View from above orbital plane
View from above satellite
View from above satellite

Ground track
Ground track

The orbit data is extracted from the following two-line orbital elements,

1 00115U 60002D   15057.46100020  .00001387  00000-0  20009-3 0  9999
2 00115 048.1656 225.3633 0035065 353.4546 006.5903 14.81712905925324
Epoch (UTC): 26 February 2015 11:03:50
Eccentricity: 0.0035065
inclination: 48.1656°
perigee height: 599 km
apogee height: 648 km
right ascension of ascending node: 225.3633°
argument of perigee: 353.4546°
revolutions per day: 14.81712905
mean anomaly at epoch: 6.5903°
orbit number at epoch: 92532

The dashed part of the orbit path shows where the satellite is in the earth's shadow,  

DLR